{"data":{"norad_id":49072,"epoch":"2026-09-20T14:12:31.273632Z","epoch_age_seconds":92982,"freshness":"FRESH","line1":"1 49072U 21074B   26263.59202863  .00001069  00000+0  57936-4 0  9999","line2":"2 49072  97.4862 265.5815 0002010  90.4512 269.6952 15.16737182281737","mean_motion":15.16737182,"eccentricity":0.000201,"inclination_deg":97.4862,"raan_deg":265.5815,"arg_perigee_deg":90.4512,"mean_anomaly_deg":269.6952,"bstar":5.7936e-5,"rev_number":28173,"period_min":94.940640810373,"perigee_km":514.32399529875,"apogee_km":517.09532165546,"semimajor_km":6893.8466584771,"source":"CELESTRAK","updated_at":"2026-09-21T09:00:07.946642Z"}}